User: anonymous   Login
Location: Newark
(52.1752°N, 10.4140°W)
Time: 14:37:17
(UTC+00:00)
Language:

N. Korean satellite - Orbit

View from above orbital plane
View from above orbital plane
View from above satellite
View from above satellite

Ground track
Ground track

The orbit data is extracted from the following two-line orbital elements,

1 39026U 12072A   21019.94242233  .00001418  00000-0  51338-4 0  9992
2 39026  97.2356  16.5862 0035931 190.9132 169.1333 15.29463843450323
Epoch (UTC): 19 January 2021 22:37:05
Eccentricity: 0.0035931
inclination: 97.2356°
perigee height: 453 km
apogee height: 502 km
right ascension of ascending node: 16.5862°
argument of perigee: 190.9132°
revolutions per day: 15.29463843
mean anomaly at epoch: 169.1333°
orbit number at epoch: 45032

The dashed part of the orbit path shows where the satellite is in the earth's shadow,  

DLR